Flag for American Samoa Weather past 2 weeks in Pago Pago, American Samoa

Now
82 °F

Broken clouds.


Feels Like: 88 °F
Forecast: 75 / 80 °F
Wind: 21 mph from Southeast

Location: Pago Pago / Int. Airp.

Current Time: Aug 1, 2014 at 4:20:31 PM

Latest Report: Aug 1, 2014 at 3:51 PM


Visibility: 12 mi

Pressure: 29.89 "Hg

Humidity: 74%

Dew point: 73 °F

Location of Pago PagoLocation

Historic Weather in Pago Pago — Graph

°F

Pago Pago temperature yesterday

Maximum temperature yesterday: 82 °F (at 10:51 AM)
Minimum temperature yesterday: 72 °F (at 10:56 PM)
Average temperature yesterday: 77 °F

Past Weeks' High & Low Weather Summary

 TemperatureHumidityPressure
High87 °F (Jul 19, 1:52 PM)97% (Jul 30, 10:51 PM)30.00 "Hg (Jul 30, 10:51 PM)
Low72 °F (Jul 30, 8:51 PM)60% (Jul 26, 10:50 AM)29.75 "Hg (Jul 22, 3:51 PM)
Average79 °F81%29.89 "Hg
* Reported Jul 17 2:51 PM — Aug 1 2:53 PM, Pago Pago, Weather by CustomWeather, © 2014

Note: Actual official high and low records may vary slightly from our data, if they occured in-between our weather recording intervals... More about our weather records

Advertising

Pago Pago weather history for previous 24 hours

 ConditionsComfort  
Time TempWeatherWind HumidityBarometerVisibility
2:53 PM
Aug 1
81 °FBroken clouds.22 mph75%29.89 "Hg10 mi
1:53 PM82 °FBroken clouds.23 mph72%29.90 "Hg10 mi
12:51 PM81 °FCloudy.22 mph80%29.93 "Hg10 mi
11:53 AM77 °FSprinkles. Cloudy.22 mph90%29.96 "Hg10 mi
9:56 AM80 °FBroken clouds.25 mph80%29.99 "Hg12 mi
8:51 AM80 °FCloudy.23 mph80%29.99 "Hg12 mi
7:50 AM79 °FBroken clouds.22 mph82%29.96 "Hg12 mi
6:50 AM78 °FBroken clouds.26 mph87%29.96 "Hg12 mi
5:55 AM77 °FOvercast.24 mph89%29.94 "Hg11 mi
3:57 AM79 °FOvercast.22 mph85%29.93 "Hg10 mi
2:53 AM78 °FSprinkles. Overcast.17 mph86%29.93 "Hg10 mi
1:50 AM78 °FSprinkles. Overcast.16 mph89%29.95 "Hg10 mi
12:50 AM77 °FSprinkles. Mostly cloudy.16 mph91%29.96 "Hg5 mi
11:50 PM
Jul 31
77 °FRain showers. Mostly cloudy.18 mph93%29.98 "Hg2 mi
10:56 PM72 °FLots of rain. Mostly cloudy.3 mph95%29.98 "Hg4 mi
9:52 PM74 °FLots of rain. Mostly cloudy.5 mph95%29.99 "Hg4 mi
8:51 PM74 °FRain showers. Mostly cloudy.6 mph94%29.98 "Hg4 mi
7:50 PM76 °FSprinkles. Mostly cloudy.10 mph90%29.96 "Hg6 mi
6:55 PM74 °FRain showers. Mostly cloudy.3 mph93%29.95 "Hg5 mi
5:51 PM74 °FSprinkles. Mostly cloudy.3 mph92%29.93 "Hg8 mi
4:51 PM74 °FSprinkles. Mostly cloudy.No wind91%29.93 "Hg10 mi
Weather by CustomWeather, © 2014

See weather overviewHow to use our weather pages